Miscellaneous Local Product
Issued by NWS Hastings, NE

Home | Current Version | Previous Version | Text Only | Print | Product List | Glossary Off
Versions: 1 2 3 4 5 6 7 8 9 10 11 12 13 14 15 16 17 18 19 20 21 22 23 24 25 26 27 28 29 30 31 32 33 34 35 36 37 38 39 40 41 42 43 44 45 46 47 48 49 50

000
AXUS43 KGID 152002
MISGRI

GID CWA HOURLY WEATHER ROUNDUP
NATIONAL WEATHER SERVICE HASTINGS NE
300 PM CDT MON SEP 15 2014

NOTE: "FAIR" INDICATES FEW OR NO CLOUDS BELOW 12,000 FEET WITH NO
SIGNIFICANT WEATHER AND/OR OBSTRUCTIONS TO VISIBILITY.

...SOUTH CENTRAL NEBRASKA...

CITY           SKY/WX    TMP DP  RH WIND       PRES   REMARKS
GRAND ISLAND   SUNNY     66  44  45 NE12G17   30.27F
HASTINGS       SUNNY     65  42  43 NE16      30.26F
KEARNEY        SUNNY     64  43  45 N8        30.28S
ORD            SUNNY     63  40  42 N10G18    30.27F
YORK           SUNNY     63  46  55 NE13G18   30.26S
AURORA         SUNNY     65  42  43 N9G16     30.26F
LEXINGTON      SUNNY     65  45  49 E9        30.28F
HOLDREGE       SUNNY     64  42  45 NE9G17    30.27F
HEBRON         SUNNY     69  46  43 NE15G23   30.22F

...NEBRASKA PANHANDLE...

CITY           SKY/WX    TMP DP  RH WIND       PRES   REMARKS
CHADRON        SUNNY     67  45  45 S9        30.23F
ALLIANCE       SUNNY     64  42  44 S9        30.27F
SCOTTSBLUFF    SUNNY     66  46  48 SE14      30.26F
SIDNEY         SUNNY     65  44  46 S10       30.31F

...WESTERN AND NORTH CENTRAL NEBRASKA...

CITY           SKY/WX    TMP DP  RH WIND       PRES   REMARKS
VALENTINE      SUNNY     64  34  32 E8        30.28F
AINSWORTH      SUNNY     60  35  38 CALM      30.29F
ONEILL         SUNNY     62  40  45 NW8       30.28F
BROKEN BOW     SUNNY     66  41  40 NE10      30.28F
IMPERIAL       SUNNY     65  42  43 MISG      30.30F
NORTH PLATTE   SUNNY     65  40  39 NE8       30.29F
MCCOOK         SUNNY     68  45  43 NE8       30.29F

...EASTERN NEBRASKA...

CITY           SKY/WX    TMP DP  RH WIND       PRES   REMARKS
NORFOLK        MOSUNNY   63  42  46 N13G23    30.26F
SO SIOUX CITY  PTSUNNY   62  43  49 NE13G20   30.26S
TEKAMAH        PTSUNNY   64  45  49 N12       30.25S
ALBION         SUNNY     62  43  49 N7        30.27F
OMAHA EPPLEY   MOSUNNY   63  47  55 N18G24    30.24R
OFFUTT AFB     PTSUNNY   63  51  66 N9G17     30.23R
MILLARD        MOSUNNY   64  47  54 N8        30.23S
LINCOLN        PTSUNNY   65  47  52 NE16      30.24F
NEBRASKA CITY  PTSUNNY   64  43  46 NE17G26   30.21S
BEATRICE       SUNNY     67  49  52 NE15G21   30.22S
FALLS CITY     PTSUNNY   68  53  58 N16G24    30.19R

...NORTHERN KANSAS...

CITY           SKY/WX    TMP DP  RH WIND       PRES   REMARKS
GOODLAND       MOSUNNY   65  50  58 VRB5      30.31F
HILL CITY      MOSUNNY   71  51  49 NE13G21   30.26S
NORTON         CLEAR     68  39  34 N13G20    30.25F
PHILLIPSBURG   SUNNY     72  46  40 N12G17    30.24S
SMITH CENTER   SUNNY     70  48  46 N18       30.23F
BELOIT         SUNNY     72  52  49 N16       30.20F
HAYS           PTSUNNY   70  54  56 NE17G23   30.23S
RUSSELL        MOSUNNY   72  55  55 NE20      30.20S
CONCORDIA      SUNNY     71  53  52 NE15G25   30.21S
SALINA         CLOUDY    69  58  67 NE8G16    30.19S
TOPEKA         CLOUDY    69  62  78 N8        30.17R



USA.gov is the U.S. government's official web portal to all federal, state and local government web resources and services.